Tracking 17844 objects as of 25-August-2016
HD Live streaming from Space Station
objects crossing your sky now

THORAD AGENA D DEB

Track THORAD AGENA D DEB now!
10-day predictions


NORAD ID: 4177
Int'l Code: 1969-082AV
Perigee: 854.2 km
Apogee: 1,030.2 km
Inclination: 70.1 °
Period: 103.7 minutes
Semi major axis: 7313 km
RCS: 0.0743 m2 (small)
Launch date: September 30, 1969
Source: United States (US)
Launch site: AIR FORCE WESTERN TEST RANGE (AFWTR)

Note: This is SATELLITE DEBRIS
Your satellite tracking list
Your tracking list is empty





NASA's NSSDC Master Catalog

Two Line Element Set (TLE):
1  4177U 69082AV  16237.92594258 +.00000283 +00000-0 +26465-3 0  9996
2  4177 070.0703 211.9084 0120373 336.7749 022.7939 13.88169673358424
Source of the keplerian elements: AFSPC

N2YO: 549